TimeEEST,TemperatureF,Dew PointF,Humidity,Sea Level PressureIn,VisibilityMPH,Wind Direction,Wind SpeedMPH,Gust SpeedMPH,PrecipitationIn,Events,Conditions,WindDirDegrees,DateUTC
12:20 AM,53.6,46.4,77,30.12,-9999.0,NNE,4.6,-,N/A,,Clear,30,2012-10-05 21:20:00
12:50 AM,51.8,44.6,76,30.12,-9999.0,NE,5.8,-,N/A,,Clear,50,2012-10-05 21:50:00
1:20 AM,57.2,46.4,67,30.12,-9999.0,NE,9.2,-,N/A,,Clear,50,2012-10-05 22:20:00
1:50 AM,55.4,46.4,72,30.12,-9999.0,ENE,9.2,-,N/A,,Clear,70,2012-10-05 22:50:00
2:20 AM,57.2,46.4,67,30.12,-9999.0,ENE,9.2,-,N/A,,Clear,70,2012-10-05 23:20:00
2:50 AM,57.2,46.4,67,30.12,-9999.0,ENE,10.4,-,N/A,,Clear,60,2012-10-05 23:50:00
3:00 AM,57,46,58,,12,ENE,10.4,,,,Clear,60,2012-10-06 00:00:00
3:20 AM,57.2,46.4,67,30.12,-9999.0,ENE,10.4,-,N/A,,Clear,70,2012-10-06 00:20:00
3:50 AM,57.2,46.4,67,30.12,-9999.0,East,10.4,-,N/A,,Clear,80,2012-10-06 00:50:00
4:20 AM,57.2,46.4,67,30.12,-9999.0,ENE,13.8,-,N/A,,Clear,70,2012-10-06 01:20:00
4:50 AM,57.2,46.4,67,30.12,-9999.0,ENE,15.0,-,N/A,,Clear,60,2012-10-06 01:50:00
5:20 AM,57.2,46.4,67,30.15,-9999.0,ENE,12.7,-,N/A,,Clear,60,2012-10-06 02:20:00
5:50 AM,55.4,46.4,72,30.15,-9999.0,NE,11.5,-,N/A,,Clear,50,2012-10-06 02:50:00
6:20 AM,55.4,46.4,72,30.15,-9999.0,NE,11.5,-,N/A,,Clear,50,2012-10-06 03:20:00
6:50 AM,53.6,46.4,77,30.15,6.2,ENE,13.8,-,N/A,,Scattered Clouds,70,2012-10-06 03:50:00
7:20 AM,55.4,46.4,72,30.15,6.2,East,11.5,-,N/A,,Scattered Clouds,80,2012-10-06 04:20:00
7:50 AM,57.2,46.4,67,30.15,6.2,East,11.5,-,N/A,,Mostly Cloudy,80,2012-10-06 04:50:00
8:20 AM,57.2,46.4,67,30.18,6.2,ENE,10.4,-,N/A,,Mostly Cloudy,70,2012-10-06 05:20:00
8:50 AM,59.0,46.4,63,30.18,6.2,ENE,15.0,-,N/A,,Mostly Cloudy,60,2012-10-06 05:50:00
9:00 AM,59,46,53,,12,ENE,15.0,,,,Partly Cloudy,60,2012-10-06 06:00:00
9:20 AM,60.8,46.4,59,30.18,6.2,NE,16.1,-,N/A,,Mostly Cloudy,50,2012-10-06 06:20:00
9:50 AM,62.6,46.4,55,30.18,6.2,ENE,16.1,-,N/A,,Mostly Cloudy,60,2012-10-06 06:50:00
10:20 AM,62.6,46.4,55,30.18,6.2,East,10.4,-,N/A,,Mostly Cloudy,80,2012-10-06 07:20:00
10:50 AM,66.2,46.4,49,30.18,6.2,NE,8.1,-,N/A,,Mostly Cloudy,50,2012-10-06 07:50:00
11:20 AM,66.2,46.4,49,30.18,6.2,East,4.6,-,N/A,,Mostly Cloudy,90,2012-10-06 08:20:00
11:50 AM,64.4,46.4,52,30.18,6.2,East,3.5,-,N/A,,Mostly Cloudy,90,2012-10-06 08:50:00
12:20 PM,66.2,46.4,49,30.15,6.2,Variable,2.3,-,N/A,,Mostly Cloudy,0,2012-10-06 09:20:00
12:50 PM,64.4,50.0,59,30.15,6.2,East,4.6,-,N/A,,Mostly Cloudy,80,2012-10-06 09:50:00
1:20 PM,66.2,50.0,56,30.15,6.2,Calm,Calm,-,N/A,,Mostly Cloudy,0,2012-10-06 10:20:00
1:50 PM,68.0,48.2,49,30.15,6.2,South,2.3,-,N/A,,Mostly Cloudy,180,2012-10-06 10:50:00
2:20 PM,68.0,48.2,49,30.15,6.2,South,1.2,-,N/A,,Mostly Cloudy,180,2012-10-06 11:20:00
2:50 PM,69.8,48.2,46,30.12,6.2,South,1.2,-,N/A,,Mostly Cloudy,190,2012-10-06 11:50:00
3:00 PM,69,48,36,,12,South,1.2,,,,Mostly Cloudy,190,2012-10-06 12:00:00
3:20 PM,69.8,48.2,46,30.12,6.2,Calm,Calm,-,N/A,,Mostly Cloudy,0,2012-10-06 12:20:00
3:50 PM,69.8,48.2,46,30.12,6.2,Calm,Calm,-,N/A,,Mostly Cloudy,0,2012-10-06 12:50:00
4:20 PM,69.8,48.2,46,30.12,6.2,Variable,1.2,-,N/A,,Mostly Cloudy,0,2012-10-06 13:20:00
4:50 PM,69.8,46.4,43,30.09,6.2,WSW,1.2,-,N/A,,Mostly Cloudy,240,2012-10-06 13:50:00
5:20 PM,69.8,48.2,46,30.09,6.2,WNW,3.5,-,N/A,,Mostly Cloudy,290,2012-10-06 14:20:00
5:50 PM,66.2,50.0,56,30.09,6.2,Variable,1.2,-,N/A,,Mostly Cloudy,0,2012-10-06 14:50:00
6:20 PM,64.4,50.0,59,30.09,6.2,South,2.3,-,N/A,,Mostly Cloudy,190,2012-10-06 15:20:00
6:50 PM,60.8,50.0,68,30.09,6.2,Calm,Calm,-,N/A,,Mostly Cloudy,0,2012-10-06 15:50:00
7:20 PM,60.8,50.0,68,30.09,6.2,NNE,1.2,-,N/A,,Mostly Cloudy,20,2012-10-06 16:20:00
7:50 PM,64.4,51.8,64,30.12,6.2,Variable,1.2,-,N/A,,Mostly Cloudy,0,2012-10-06 16:50:00
8:20 PM,62.6,51.8,68,30.12,6.2,Calm,Calm,-,N/A,,Mostly Cloudy,0,2012-10-06 17:20:00
8:50 PM,60.8,51.8,72,30.12,6.2,NNE,1.2,-,N/A,,Mostly Cloudy,30,2012-10-06 17:50:00
9:00 PM,60,51,63,,12,NE,1.2,,,,Partly Cloudy,40,2012-10-06 18:00:00
9:20 PM,59.0,48.2,67,30.12,6.2,NNE,1.2,-,N/A,,Mostly Cloudy,20,2012-10-06 18:20:00
9:50 PM,57.2,48.2,72,30.12,6.2,ENE,1.2,-,N/A,,Mostly Cloudy,60,2012-10-06 18:50:00
10:20 PM,55.4,48.2,77,30.12,6.2,Variable,1.2,-,N/A,,Mostly Cloudy,0,2012-10-06 19:20:00
10:50 PM,57.2,46.4,67,30.12,6.2,East,4.6,-,N/A,,Mostly Cloudy,80,2012-10-06 19:50:00
11:20 PM,55.4,46.4,72,30.12,6.2,Variable,2.3,-,N/A,,Mostly Cloudy,0,2012-10-06 20:20:00
11:50 PM,51.8,46.4,82,30.12,6.2,Calm,Calm,-,N/A,,Mostly Cloudy,0,2012-10-06 20:50:00